sat.trackr.live / text

‹ back to catalog

STARLINK-35864

NORAD 67081 · 2025-298G

PAYLOAD ACTIVE UNKNOWN

§ Identity

Operator
Country
US
Launch date
2025-12-14
Launch site
AFWTR
Launch vehicle
Mass (kg)
RCS (m²)

Purposes: comms

External: N2YO · Heavens-Above · Gunter

§ Orbital elements

Epoch: 2026-05-25T03:37:16.635936Z

Period
96.11 min
Inclination
70.0015°
Eccentricity
0.0004316
Mean motion
14.98338050 rev/d
Perigee alt
569.0 km
Apogee alt
575.0 km
Semi-major
6,950.2 km
B*
3.3017e-4
RAAN
181.5474°
Arg perigee
263.6196°
Mean anomaly
96.4472°
Rev number
2,467

§ Raw data

STARLINK-358641 67081U 25298G   26145.15088699  .00003850  00000+0  33017-3 0  99942 67081  70.0015 181.5474 0004316 263.6196  96.4472 14.98338050 24676

JSON: /api/v1/satellites/67081 · /tle

For live sub-satellite position, see the globe view (requires WebGL).

§ Visibility from observer

Set your observer location to see the next 7 days of passes ≥ 10°. The values pass through the URL so the page stays shareable.

No JS? Fill the form by hand. The geolocation button needs JavaScript.